Theta_e
307 307 309 308 309 295 300 305 299 302 307 304 300 305 307 306 302 299 310 310 315 320 324 326 327 328 330 331 331 331 332 335 339 337 335 336 337 335 334 334 333 334 336 338 339 339 339 345 346 348 351 353 353 354 355 356 358 359 358 358 357 356 356
308 310 308 308 309 308 302 296 299 308 310 307 302 294 299 298 293 300 308 306 307 309 306 323 323 323 327 329 330 330 331 333 335 338 338 337 338 339 335 334 334 336 336 338 339 339 339 342 347 349 352 354 354 356 356 355 357 356 358 358 359 358 356
307 310 308 304 307 308 302 299 307 298 295 293 301 298 292 292 295 299 306 307 309 310 311 318 319 321 324 327 331 330 329 330 331 333 336 339 340 340 339 337 335 335 336 338 338 338 339 340 345 350 352 353 354 356 357 357 356 357 358 359 359 359 358
306 306 302 296 298 304 306 306 301 307 301 297 295 297 299 298 294 298 301 304 301 313 314 319 320 322 323 327 328 329 330 330 330 330 332 336 339 339 339 341 336 337 336 337 339 339 338 340 344 348 350 352 353 354 355 356 357 358 357 357 358 357 358
305 298 301 297 299 296 297 298 296 299 304 304 301 303 298 295 294 293 297 297 303 314 329 321 321 322 323 326 327 328 331 331 332 332 332 335 338 339 339 341 342 338 337 337 341 340 340 342 346 347 348 350 351 353 353 355 355 356 355 356 357 357 358
298 299 305 305 304 303 298 296 296 297 296 296 294 293 303 300 295 290 294 297 311 322 337 329 327 329 327 327 328 328 330 332 333 334 336 338 338 339 339 340 342 340 337 338 341 341 343 343 345 344 347 349 350 351 352 353 355 354 354 354 355 356 356
300 304 308 309 308 306 304 301 298 302 300 300 298 287 294 300 300 304 303 303 306 325 330 330 330 330 330 332 331 329 331 333 334 336 339 340 340 340 340 341 342 345 339 338 340 341 344 342 345 344 345 347 348 349 351 350 352 352 353 353 353 354 354
305 307 309 308 308 306 302 302 302 301 298 299 297 297 300 297 299 295 301 302 306 325 330 331 332 332 329 332 333 332 333 334 336 337 339 340 340 340 341 341 342 342 342 338 340 341 344 343 345 344 345 347 347 348 349 349 350 350 350 351 351 352 352
295 299 304 304 305 305 300 298 300 302 302 303 301 301 302 295 299 300 301 296 302 322 328 328 329 330 330 331 331 332 330 331 333 333 336 339 340 340 340 340 340 342 343 338 340 342 344 343 346 345 345 348 348 349 348 348 349 349 348 348 351 351 352
288 289 290 292 295 299 301 302 303 304 303 304 301 294 297 289 299 303 300 304 314 321 324 324 326 327 328 330 331 335 336 335 334 334 335 334 339 339 340 340 343 346 344 342 340 342 347 344 345 345 346 350 349 351 350 348 349 349 348 352 350 349 351
292 294 299 305 307 303 298 300 303 302 304 304 304 303 296 292 301 304 309 313 313 315 318 322 325 324 327 328 329 331 333 333 332 334 335 336 337 336 340 339 339 339 342 350 344 342 348 345 346 345 347 351 350 350 351 351 349 349 352 351 349 348 349
301 302 302 304 307 302 302 302 302 304 303 307 306 302 300 306 301 296 311 317 313 313 318 320 321 322 326 329 328 330 331 332 334 337 340 340 336 339 339 338 337 338 340 347 350 345 347 346 350 348 349 352 352 351 353 356 354 352 355 353 350 349 348
302 303 304 305 304 304 303 303 303 303 308 309 307 307 310 311 300 298 310 315 314 316 319 321 323 324 326 330 329 330 332 332 334 335 336 336 337 337 339 338 336 336 343 349 350 350 351 352 353 353 356 357 358 358 359 359 359 360 360 358 356 356 354
301 302 303 305 304 304 304 304 304 306 307 309 310 309 312 311 309 315 315 314 313 317 319 322 323 327 329 330 331 331 331 332 332 333 334 336 339 339 340 341 342 343 343 341 340 341 341 342 341 341 342 344 347 350 351 353 357 360 361 361 360 357 354
298 302 304 304 303 303 301 304 307 307 308 311 311 311 312 313 312 313 314 313 312 317 324 325 327 327 328 330 328 329 329 330 333 333 335 334 335 336 336 335 335 336 338 339 338 338 340 342 343 343 343 344 346 347 348 348 349 351 355 354 359 358 350
296 301 301 302 303 304 303 304 304 305 307 306 308 308 311 310 310 312 312 309 309 316 323 326 326 325 325 324 326 327 328 332 333 332 333 333 333 333 334 334 334 334 336 338 338 337 340 342 343 343 344 344 344 344 346 347 348 350 350 350 350 349 347
294 300 301 301 301 300 299 299 302 306 310 311 311 312 313 314 315 311 307 307 317 321 324 321 321 323 324 324 326 327 330 330 331 331 332 333 332 331 332 333 333 333 334 336 336 337 339 340 340 342 343 342 342 343 344 345 347 348 346 346 346 348 349
294 299 300 301 296 290 293 306 307 308 309 310 307 307 310 313 317 313 316 317 321 321 321 320 320 320 320 323 327 332 331 329 329 330 331 332 332 333 334 334 334 335 336 337 338 338 340 341 340 341 341 339 340 342 343 343 342 343 344 343 344 344 346
294 298 302 294 290 293 302 308 308 309 313 312 310 311 313 314 317 319 318 319 320 321 322 322 321 320 321 322 325 328 331 330 329 328 329 330 330 330 331 332 333 334 336 338 339 339 340 341 342 341 340 340 340 340 340 339 340 341 342 342 342 342 341
299 296 296 286 290 305 307 307 308 311 308 308 311 308 311 314 315 318 317 318 319 321 322 322 321 319 319 319 323 325 325 327 330 330 329 331 332 331 332 332 333 333 335 336 338 338 341 342 341 340 338 340 339 338 339 338 339 339 339 338 339 340 340
292 295 295 294 304 304 305 306 307 306 302 303 305 299 303 312 316 319 318 320 320 321 321 322 322 321 318 314 316 324 323 323 322 323 324 328 332 334 335 336 336 337 337 338 338 338 338 339 339 339 339 339 337 337 337 338 337 337 336 336 337 338 338
298 292 291 294 294 292 300 310 310 311 311 310 313 307 301 311 318 320 319 319 320 320 321 320 322 322 313 309 310 319 324 325 322 323 323 322 323 329 328 329 332 336 338 340 341 340 339 338 337 336 336 335 334 333 333 334 332 332 332 332 334 335 336
295 295 291 290 290 298 305 309 311 312 312 311 311 304 298 309 319 320 322 320 320 319 318 320 322 314 308 307 313 319 321 323 324 322 324 320 320 317 319 320 320 321 322 323 326 332 330 327 329 332 334 334 332 331 331 331 331 329 329 331 332 332 333
297 296 292 291 298 299 307 309 310 312 311 311 307 292 295 309 317 320 321 321 321 320 319 320 317 311 307 309 314 322 324 322 322 319 316 315 315 316 318 319 321 324 326 325 324 324 324 326 328 329 325 325 325 324 325 325 324 325 326 328 331 335 336
296 298 294 298 301 309 310 310 312 314 314 309 296 290 300 314 316 319 320 321 322 322 320 319 312 316 316 316 320 326 323 318 318 318 319 317 317 317 319 320 323 318 320 321 322 323 324 325 327 328 325 323 322 325 323 322 323 325 326 328 329 328 328
294 295 295 296 299 307 310 313 314 315 313 297 295 304 316 317 317 319 321 321 323 323 321 319 318 318 322 324 324 323 322 320 322 321 320 320 319 321 324 325 320 317 318 319 320 321 324 324 324 324 324 323 322 322 322 321 322 326 327 328 326 326 327
300 298 294 290 286 303 313 316 311 313 305 304 312 315 316 319 318 320 321 322 322 323 321 321 319 320 321 321 320 320 321 322 321 321 320 319 318 317 317 317 319 317 315 316 317 318 319 320 321 323 323 322 322 322 321 322 324 325 326 327 328 328 326
293 294 293 291 302 308 314 311 303 311 312 315 317 315 312 317 319 320 321 322 323 323 322 320 320 320 320 319 319 319 320 321 320 319 319 319 319 319 319 318 318 318 314 314 314 317 319 319 319 320 320 319 321 321 321 325 326 327 324 324 327 329 328
300 297 301 306 311 311 312 314 313 313 315 318 318 317 316 316 318 323 320 321 323 324 323 322 322 321 321 320 320 320 319 318 318 317 316 315 315 316 316 317 321 319 316 316 317 318 319 320 321 321 321 321 321 319 321 326 326 327 326 326 328 328 322
307 309 309 311 309 310 311 314 315 315 315 317 318 318 316 317 320 322 321 322 323 325 325 321 321 320 320 320 320 320 319 317 318 319 317 315 315 317 318 317 318 317 318 316 315 315 313 312 312 316 314 317 319 320 323 325 323 326 329 330 325 325 323
298 293 309 309 309 311 312 312 315 315 316 315 317 317 317 319 321 322 324 323 323 323 323 323 321 321 322 321 321 321 317 316 316 316 316 315 315 315 318 319 319 316 314 314 316 317 315 316 314 313 312 313 315 317 321 324 326 327 328 327 326 327 322
300 301 307 307 310 311 313 313 312 313 316 317 318 318 319 320 321 321 322 324 323 324 323 323 322 322 323 322 321 321 321 319 319 317 316 316 316 318 320 321 320 318 315 313 314 316 314 313 315 315 314 313 313 312 315 318 322 325 327 326 321 319 321
305 308 309 310 311 310 310 312 313 315 315 315 316 317 317 317 317 319 322 321 320 322 322 324 323 323 323 325 323 322 322 321 321 320 319 318 318 318 320 319 320 316 316 315 315 316 316 316 316 315 315 315 317 315 315 316 318 319 323 327 322 317 319
299 301 306 310 302 302 308 312 314 316 317 317 316 316 316 317 317 318 318 319 321 321 323 322 322 321 321 322 322 321 321 322 321 321 321 321 321 320 321 321 319 319 320 317 316 315 314 315 315 315 315 316 318 318 319 319 321 318 319 321 320 316 318
300 308 312 314 312 310 311 312 314 316 317 318 316 316 316 317 317 318 318 317 319 320 322 322 323 322 322 321 322 320 321 322 323 323 323 321 322 322 322 321 320 319 319 320 318 317 317 318 317 317 316 316 318 320 320 320 322 323 323 325 322 319 318
311 314 314 315 313 309 312 315 314 316 318 317 317 317 318 318 318 318 317 318 318 318 320 321 324 324 323 323 322 321 321 323 323 323 324 323 322 322 321 321 319 318 317 318 318 319 317 318 317 317 317 318 318 320 322 322 322 321 322 322 321 321 321
309 315 315 316 316 315 316 317 316 318 320 319 316 314 315 316 318 319 318 318 318 318 318 318 319 321 322 322 322 321 322 322 324 324 325 324 324 322 320 321 319 319 318 318 317 317 317 317 317 318 316 317 318 319 319 320 321 316 315 317 316 318 321
Wind_Speed
13 10 6 5 2 3 2 6 10 9 4 4 3 1 7 8 5 2 2 1 2 0 0 1 4 8 10 11 11 14 14 13 8 7 9 9 7 7 7 8 10 10 12 11 11 11 10 15 14 15 14 14 13 13 13 13 11 11 12 10 10 9 7
9 8 4 3 7 5 4 2 1 4 5 3 2 1 2 1 3 1 2 1 1 3 1 4 3 6 11 12 13 14 14 14 12 10 7 8 9 6 6 8 9 9 11 11 11 11 11 13 16 15 16 14 14 13 14 14 12 13 11 11 10 10 9
8 6 3 5 6 5 5 2 6 2 3 6 0 1 1 1 1 1 1 3 1 4 5 6 10 9 11 12 13 14 16 16 16 12 10 8 8 7 4 4 10 9 11 10 11 11 13 10 15 16 15 14 13 13 14 14 13 14 13 11 10 9 9
9 4 5 2 3 3 4 3 6 0 2 5 5 4 1 4 1 7 4 5 3 6 4 12 12 12 12 13 14 16 17 18 15 14 13 12 11 9 7 4 7 11 12 11 12 12 13 11 12 16 15 13 15 14 14 13 12 11 11 11 10 10 10
7 1 0 3 3 2 2 1 3 3 1 2 0 2 4 3 2 3 5 1 5 2 2 5 7 6 9 12 13 12 14 16 16 15 15 14 14 12 9 5 3 10 12 12 11 11 12 10 11 15 13 15 14 12 14 13 14 13 13 12 11 9 9
0 1 5 5 5 4 3 4 4 6 5 3 2 4 4 4 2 2 5 2 1 3 1 4 5 3 5 6 12 10 11 14 14 13 14 14 13 13 11 7 5 4 11 12 11 11 10 11 11 15 13 14 14 13 13 12 13 12 12 12 11 10 9
6 10 13 6 7 6 5 8 6 8 3 2 0 2 3 2 2 1 3 7 2 4 7 5 4 3 4 6 3 3 5 10 11 11 12 12 12 13 12 8 6 3 7 11 11 12 12 13 11 13 13 14 14 14 14 12 13 13 13 12 10 10 9
9 10 11 5 8 4 4 3 6 4 6 3 2 2 2 3 2 4 4 4 3 2 4 3 5 5 6 6 6 5 7 7 3 10 11 10 11 11 12 10 6 3 4 9 9 10 11 12 10 12 11 11 13 13 14 12 14 15 13 11 11 12 10
6 9 8 9 3 2 2 3 3 4 5 9 8 6 3 4 1 1 7 4 4 1 4 3 6 8 8 7 7 7 4 5 10 11 11 4 10 9 11 10 7 5 3 6 10 10 10 11 10 10 11 9 11 11 13 12 13 14 12 10 12 13 11
4 5 6 7 9 7 8 6 3 4 5 2 2 7 2 1 3 6 3 3 2 2 5 4 4 5 4 4 3 3 4 3 5 9 10 9 7 4 9 7 3 1 2 3 6 8 8 10 10 10 11 9 9 9 11 10 12 11 9 9 12 13 11
3 5 6 8 8 3 5 5 1 7 7 8 12 2 2 1 3 9 3 11 6 2 4 4 3 1 4 4 4 3 4 4 3 3 5 7 10 12 13 10 11 11 10 2 5 6 8 9 8 10 11 9 8 8 8 8 8 9 7 10 11 13 10
5 3 6 12 10 8 6 9 10 11 7 13 15 12 14 6 9 3 4 17 12 7 5 4 3 1 3 3 3 1 2 3 5 6 5 9 7 5 8 12 7 4 9 7 2 6 6 9 9 9 8 8 8 7 7 5 6 6 5 8 9 9 10
11 6 7 6 8 7 7 7 6 6 18 18 17 14 19 20 4 5 4 8 12 5 1 4 3 2 2 2 2 5 4 5 7 7 6 6 6 5 5 5 11 10 7 2 1 3 3 5 9 9 7 6 5 4 5 5 5 5 5 6 6 7 8
11 10 10 9 9 6 7 7 5 11 16 16 15 15 18 15 10 13 12 14 16 6 4 7 10 7 7 5 5 5 7 8 6 5 6 6 5 3 3 2 1 3 6 10 13 13 14 16 16 16 14 13 13 13 12 11 9 7 5 5 6 5 7
7 11 10 11 16 11 9 5 15 20 16 17 15 16 15 12 13 13 12 8 9 6 7 9 13 13 8 5 7 6 4 4 5 4 4 4 3 5 6 7 8 9 10 10 9 11 13 13 12 10 6 6 7 9 9 11 10 12 13 11 8 8 9
6 8 8 10 15 13 14 13 19 15 15 12 12 10 10 11 8 7 10 8 6 7 6 12 12 12 14 13 9 8 6 6 5 8 7 6 6 7 7 6 7 10 9 8 10 10 13 12 11 9 7 6 8 8 7 6 4 4 7 8 9 9 5
4 6 9 10 12 4 10 10 13 12 10 9 10 11 12 11 6 9 7 2 2 4 9 15 14 14 10 11 11 7 7 9 9 8 7 8 9 8 9 10 10 8 10 9 9 10 10 10 10 11 10 11 12 10 9 8 9 8 7 7 7 7 5
3 6 7 6 6 6 1 2 12 10 11 11 11 8 10 11 10 7 7 6 6 10 13 15 12 14 12 8 9 10 8 9 10 9 9 10 9 9 10 11 11 7 6 8 7 8 10 11 11 10 11 12 11 10 10 9 9 8 7 7 8 8 6
2 4 1 2 4 1 4 1 8 9 14 14 13 11 9 10 11 13 13 11 12 12 12 12 11 10 9 10 16 16 12 8 9 10 10 10 9 7 9 10 11 12 11 10 8 10 10 7 6 8 8 9 10 11 10 10 8 7 6 6 7 7 7
0 0 1 2 2 2 7 11 10 8 6 5 10 11 11 10 10 11 12 10 9 8 9 10 8 9 9 12 13 16 15 13 11 11 11 9 8 8 7 9 8 8 10 10 9 8 5 8 6 7 8 9 10 9 8 8 6 6 7 8 8 8 8
1 1 0 4 3 1 11 5 6 6 5 4 8 7 8 9 9 11 9 9 8 7 7 7 5 8 12 13 11 11 12 13 15 13 12 9 7 6 7 7 8 8 8 8 8 7 6 7 7 7 6 8 9 9 9 7 7 6 6 6 5 6 6
2 2 1 2 1 1 2 3 7 7 9 7 7 6 4 11 10 8 9 9 7 5 4 3 3 4 10 8 6 7 7 8 15 12 10 11 11 11 12 12 12 11 8 6 6 9 9 9 8 8 8 7 8 10 9 8 7 5 5 5 5 6 5
5 2 0 1 2 1 2 5 8 7 8 7 4 5 6 5 8 8 9 9 5 3 3 2 1 4 5 1 0 0 3 4 8 11 8 9 10 11 13 13 15 17 15 16 14 10 11 11 9 7 5 6 8 8 7 7 5 6 5 4 2 3 3
2 0 1 2 0 2 3 7 7 8 5 6 2 2 1 3 5 5 5 7 4 2 3 3 4 7 8 6 3 3 3 5 4 6 8 9 9 10 10 11 11 12 10 11 12 13 12 12 10 9 11 12 12 11 10 9 9 9 7 6 4 2 2
3 3 3 1 2 2 6 6 6 6 4 1 5 3 1 0 3 3 4 4 4 2 1 1 3 2 3 7 5 1 3 6 4 4 4 7 7 8 10 12 12 12 10 10 11 10 9 7 9 8 9 10 9 9 8 9 9 7 6 7 7 6 6
4 3 5 3 2 0 5 1 10 7 2 4 4 2 1 2 4 3 4 5 3 3 4 4 5 6 8 6 4 4 4 6 7 6 6 9 12 12 10 11 9 8 9 10 10 10 9 10 9 10 10 11 10 8 8 8 7 6 7 6 6 6 6
1 4 4 2 2 3 8 2 6 9 4 2 0 2 5 4 3 4 4 4 4 5 7 6 7 7 5 5 5 4 5 7 6 6 7 8 8 9 9 9 8 9 8 9 9 8 8 9 8 8 10 10 8 7 9 7 6 7 7 7 5 4 4
1 3 2 1 2 3 6 7 5 2 4 3 4 4 6 4 4 4 4 5 4 7 8 8 6 5 6 5 6 4 7 7 6 6 6 7 8 8 8 7 7 8 8 7 6 6 6 5 4 4 7 8 7 7 6 3 4 3 4 5 4 3 2
2 2 2 3 4 4 6 6 6 6 6 6 6 6 5 5 4 4 4 3 4 5 6 7 8 8 6 6 6 6 7 6 5 5 5 6 6 7 8 7 6 5 6 5 5 4 4 4 4 4 5 5 5 5 3 3 3 2 1 1 2 1 4
5 6 5 6 6 6 7 7 6 6 6 7 6 6 6 5 5 4 4 3 3 3 3 5 4 4 6 6 6 7 7 6 6 5 5 5 5 6 5 5 5 4 4 4 4 5 5 4 5 4 5 5 4 2 1 2 2 3 3 2 1 1 3
3 3 4 5 6 7 8 8 6 6 6 5 4 5 5 5 4 4 4 4 4 4 3 4 4 5 4 4 4 5 6 7 6 6 5 4 4 4 5 3 3 3 4 4 3 4 4 4 4 3 3 4 3 2 4 3 3 1 1 4 5 2 1
5 4 6 10 9 8 7 5 6 6 5 5 4 4 4 4 5 5 5 4 5 5 5 4 5 4 3 2 2 5 5 6 6 5 5 5 5 4 5 4 3 3 3 3 3 3 3 3 3 3 4 4 3 3 3 3 3 3 3 3 3 5 4
3 5 6 7 6 8 8 6 5 5 5 6 6 7 7 7 6 4 3 4 4 3 6 6 5 4 3 1 1 3 5 4 4 5 5 5 5 5 4 4 4 4 4 4 3 1 1 1 1 2 3 2 3 3 3 3 3 4 3 4 4 5 5
4 2 2 5 6 3 4 5 5 5 5 6 7 7 7 6 6 6 5 3 2 4 5 5 5 5 5 4 4 4 4 5 4 4 4 4 5 3 4 6 6 5 4 4 4 3 3 3 2 1 1 0 1 1 2 3 3 4 3 3 3 4 4
3 3 3 5 8 6 4 5 6 6 5 6 6 5 4 5 5 5 5 6 6 4 3 2 4 1 3 4 4 5 5 5 5 5 4 5 5 4 4 6 5 5 5 5 5 4 4 3 3 3 2 1 0 0 1 3 3 2 3 3 3 2 2
4 5 7 5 4 5 4 6 7 5 5 4 5 5 5 4 5 5 6 4 5 5 4 3 2 1 2 2 2 3 4 6 5 4 4 3 4 4 4 4 5 6 5 5 5 5 4 3 3 3 3 2 1 0 0 1 2 3 3 2 2 3 3
4 4 5 4 6 7 5 5 5 5 5 5 6 6 5 5 4 4 5 4 5 5 5 5 6 5 4 6 6 4 4 3 2 1 1 3 4 6 4 5 5 5 6 5 4 4 3 4 2 2 3 3 2 2 3 3 3 3 3 3 3 3 3
Wind_Direction
170 200 197 196 185 221 338 141 178 207 224 261 313 316 178 144 100 179 149 53 32 351 224 178 141 147 154 163 162 167 172 177 182 209 205 200 202 209 200 181 177 171 170 168 168 166 158 154 164 164 160 163 163 163 168 170 173 174 175 181 178 185 180
154 191 194 248 193 207 260 98 243 229 215 258 196 162 332 178 154 97 337 56 142 185 260 181 140 168 154 167 165 170 177 179 192 205 211 200 202 217 213 186 174 169 169 166 166 165 170 155 167 163 165 163 164 164 169 169 170 178 176 181 180 181 184
150 161 144 234 272 231 224 205 323 26 161 229 5 91 272 276 104 190 280 229 231 211 201 171 181 178 168 165 166 172 181 187 194 201 209 215 214 213 234 213 176 172 169 164 167 166 173 156 160 164 164 164 164 166 170 170 175 177 177 182 179 182 181
133 125 104 296 274 261 272 322 285 268 192 195 176 176 205 120 190 135 217 212 230 205 218 188 181 186 170 167 168 179 186 191 192 196 202 208 211 216 218 216 191 172 174 168 164 169 167 161 148 163 160 163 166 169 170 170 176 174 179 182 180 181 184
115 142 85 201 239 237 271 134 300 307 246 155 136 192 183 158 186 179 144 216 275 276 313 198 187 179 171 171 177 179 184 187 190 193 196 198 202 208 213 196 226 179 176 170 165 166 164 161 147 160 160 165 167 168 170 171 174 180 179 186 180 183 183
55 139 186 190 217 217 211 149 216 230 258 272 214 279 211 192 137 211 153 169 44 340 32 44 124 128 160 165 168 177 177 183 186 189 192 189 195 201 205 205 197 206 174 174 166 166 158 164 153 158 161 163 165 168 171 170 173 181 180 186 180 181 181
337 320 297 231 217 237 219 161 212 212 244 323 343 198 283 290 256 356 94 109 326 353 354 44 35 63 62 38 63 126 170 179 184 192 184 188 195 195 204 201 196 215 195 173 169 169 165 167 164 161 160 165 167 170 170 173 173 181 184 186 177 176 177
311 309 303 278 176 266 304 206 203 193 232 243 226 220 279 318 322 34 65 65 242 311 327 34 38 22 33 44 51 60 37 12 220 190 181 179 193 200 204 200 205 188 242 177 164 166 163 164 162 165 165 161 168 168 172 174 176 182 184 182 171 174 176
332 329 351 348 50 336 335 286 273 221 211 205 250 290 64 359 345 149 124 149 241 298 313 6 73 46 33 34 27 28 30 67 57 33 335 238 183 193 196 202 199 204 231 197 166 164 162 163 159 163 166 162 165 168 174 174 179 182 186 175 169 174 175
2 355 333 320 318 308 308 285 327 284 210 329 146 267 314 271 285 48 86 68 45 313 322 354 74 67 82 82 72 43 37 66 100 108 90 351 325 199 191 177 149 96 302 210 169 164 159 164 163 164 167 165 165 165 173 175 174 179 179 166 170 173 171
217 223 234 240 238 286 297 313 18 321 1 359 338 315 351 305 86 81 67 133 112 14 315 325 320 98 121 106 69 52 63 50 16 101 116 131 86 32 12 8 13 4 338 324 191 171 160 162 166 167 166 161 163 166 160 163 167 165 160 161 169 171 168
229 239 288 288 290 292 304 328 345 343 6 42 61 47 3 299 91 41 140 139 129 185 219 227 235 65 23 38 73 75 75 49 44 39 41 85 92 125 139 133 150 223 263 299 238 169 167 159 159 164 164 158 159 162 159 151 160 156 151 146 159 160 165
324 287 256 285 313 301 296 309 289 37 50 49 42 22 28 28 60 133 141 100 113 147 255 275 271 150 109 98 72 53 45 66 44 35 43 74 114 148 158 183 171 190 224 279 324 116 125 148 148 148 134 125 112 112 112 120 114 119 119 124 140 146 150
308 309 309 273 253 296 290 285 9 35 54 56 48 42 41 44 70 41 43 74 85 87 307 302 304 335 47 41 37 54 56 46 56 56 49 35 38 43 41 59 35 354 11 21 18 17 27 39 34 27 15 20 20 23 16 12 21 16 52 84 106 107 99
305 315 311 5 0 339 329 34 36 36 42 51 46 45 48 61 43 51 39 2 62 50 43 4 357 356 349 37 30 31 67 83 55 70 91 73 39 25 43 27 27 22 29 33 46 42 43 41 38 49 52 53 51 47 40 29 18 9 5 359 18 61 79
316 300 4 16 358 39 31 31 43 35 30 39 33 46 39 60 77 73 72 30 15 352 33 76 47 26 8 14 10 355 8 45 88 80 63 51 44 29 28 47 51 59 49 58 64 51 51 41 45 42 43 56 56 34 45 56 62 68 56 30 20 43 32
303 317 26 19 333 325 42 30 26 35 66 69 69 57 49 55 85 72 66 107 33 25 47 65 58 57 48 10 335 331 5 42 49 55 63 53 52 46 48 46 60 59 67 67 84 84 70 69 60 55 57 51 42 37 34 23 16 34 53 67 65 33 92
282 328 36 9 15 47 2 328 53 45 74 66 62 47 38 43 57 75 81 79 65 66 65 65 59 56 42 41 12 355 17 20 54 65 66 68 56 50 57 65 67 61 53 58 54 76 81 78 78 75 75 74 67 58 52 37 25 19 29 43 65 84 59
283 331 99 84 66 183 269 334 70 73 91 80 76 63 50 42 60 73 75 74 75 76 75 72 72 68 47 32 45 34 23 37 55 56 59 63 63 60 60 62 74 78 69 65 49 45 38 43 74 84 74 78 81 73 66 54 32 26 31 38 41 60 75
303 274 78 86 221 237 49 35 37 47 52 72 79 58 44 51 53 74 82 84 89 85 82 88 93 83 66 55 42 56 33 19 29 40 47 44 55 62 66 73 59 71 91 96 97 93 99 94 82 76 86 89 84 81 79 82 74 58 39 37 34 38 51
225 303 56 145 228 7 12 11 1 348 58 19 89 82 28 21 54 65 80 91 89 87 94 108 100 83 64 46 28 24 62 47 34 33 26 14 17 47 62 72 76 68 66 78 88 92 77 75 87 84 85 88 95 94 80 67 65 55 62 60 53 57 51
215 272 20 36 53 99 278 319 317 343 28 30 107 94 56 12 45 63 77 72 83 103 123 128 138 95 62 56 12 356 13 76 93 73 41 22 22 26 33 32 42 38 37 53 81 90 91 86 84 88 92 95 92 90 91 94 91 87 75 73 68 69 66
337 335 27 115 109 58 267 309 322 350 27 358 31 84 37 350 31 37 61 77 70 75 96 121 163 72 77 78 240 244 93 71 77 93 103 91 83 82 76 64 57 55 44 34 26 33 57 60 63 76 84 94 93 91 101 102 93 73 62 61 64 94 120
267 324 69 112 97 99 341 335 338 9 359 6 15 65 298 333 43 49 58 57 75 72 61 85 77 108 133 161 214 231 176 146 129 103 95 86 79 71 78 82 89 86 70 55 55 53 47 41 30 38 61 66 64 62 56 54 54 54 51 44 31 35 61
252 209 78 58 57 12 338 322 351 341 330 10 65 150 111 100 86 55 54 75 62 76 98 28 94 7 118 147 166 226 71 104 90 83 86 88 91 87 76 72 70 72 71 71 67 63 60 64 67 51 52 58 63 68 62 58 46 37 33 37 33 36 39
34 331 101 113 149 300 310 315 23 345 19 65 116 212 227 69 65 55 69 84 87 91 73 68 82 96 103 114 115 98 86 76 70 66 73 76 71 69 70 71 70 73 72 69 69 65 62 60 57 61 63 63 53 45 49 50 43 23 23 24 35 36 39
50 47 67 47 21 337 348 339 30 3 75 176 220 121 83 85 76 65 56 72 88 94 91 86 100 109 115 124 115 107 86 77 71 61 60 66 79 83 80 72 71 76 71 64 59 60 61 63 62 62 67 68 58 51 51 37 33 33 19 7 13 37 38
74 54 72 118 125 51 17 54 90 43 84 150 92 86 84 52 59 67 53 39 71 102 120 126 130 132 132 122 129 122 91 86 85 80 72 68 67 69 67 82 92 91 87 79 73 58 57 64 66 73 95 95 84 74 57 28 44 60 35 7 6 16 33
79 140 137 155 130 79 46 57 78 73 54 69 91 88 94 111 89 77 74 68 76 102 122 135 144 150 148 142 144 123 115 117 114 104 89 87 87 86 84 76 69 69 79 82 84 82 64 55 34 41 35 69 92 96 98 68 50 37 43 330 317 26 66
92 98 126 122 102 97 78 60 62 70 70 63 71 93 100 81 83 84 104 96 73 73 93 109 123 137 144 143 140 130 136 127 114 106 105 100 101 93 86 80 79 77 69 74 84 83 68 66 65 53 49 49 58 20 110 113 100 91 68 353 335 75 83
97 100 162 122 126 127 120 109 93 82 77 70 66 71 84 108 116 120 118 125 127 116 99 96 100 81 76 100 116 138 143 130 129 136 131 141 129 121 107 115 102 90 91 84 64 50 43 14 23 33 45 50 52 32 28 3 359 353 70 68 46 19 99
121 145 110 91 79 71 67 77 89 77 76 91 77 77 81 106 121 116 125 124 101 119 128 125 103 99 101 107 73 94 112 124 136 137 143 137 123 115 131 141 122 97 76 64 54 44 33 5 16 24 21 10 8 8 13 8 347 1 32 51 73 70 69
81 92 104 100 87 96 104 93 76 89 97 82 67 61 57 47 51 98 98 61 93 114 118 128 129 128 150 183 150 124 120 120 123 135 143 142 138 148 157 136 130 130 133 126 118 106 79 24 360 10 1 351 356 359 349 353 10 32 37 43 49 53 44
151 161 158 125 124 122 92 88 100 92 75 86 88 77 61 51 55 55 89 111 94 89 102 126 148 157 172 188 182 150 142 145 146 146 156 141 136 146 150 147 140 131 125 126 127 142 177 181 182 182 216 332 4 351 332 322 348 21 12 28 52 72 79
173 173 144 100 114 113 128 124 99 82 71 74 79 83 87 77 59 61 77 71 60 79 92 82 96 78 187 164 170 155 162 147 150 154 146 143 134 127 110 109 119 124 133 135 142 153 165 168 160 160 163 204 209 351 319 317 334 339 333 354 41 68 65
122 144 133 136 119 133 142 117 105 108 108 99 99 93 99 96 84 75 61 63 94 84 81 69 82 86 86 113 83 62 98 135 145 159 170 159 135 134 131 130 138 136 143 155 156 155 163 160 155 143 130 143 180 244 342 331 347 10 8 26 25 9 21
159 151 136 130 132 136 140 119 114 104 88 93 84 71 57 63 72 74 71 63 58 78 79 72 40 35 71 68 75 93 94 95 143 114 180 174 159 159 170 155 168 170 171 170 163 155 152 128 143 128 101 59 45 67 29 11 31 70 64 68 51 25 18